Weather in Jingzhou

China     30°19′04″N   112°16′31″E
temp.,
°C
wind,
m/s
gust,
m/s
humid.,
%
clouds,
%
prec.,
mm/h
press.,
hPa
HPBL,
m
4 march, thu
thu423:00+10s388286 0.0 1022213
02:00+8s398843 0.0 1021227
05:00+8s37950 0.0 1020169
08:00+9s36900 0.0 1020201
11:00+15s45660 0.0 1021594
14:00+18s445216 0.0 10171107
17:00+18sse455066 0.0 10161321
20:00+14ene117481 0.4 101740
5 march, fri
fri523:00+14ene127493 0.0 101926
02:00+13e227894 0.1 101763
05:00+12e118595 0.6 101663
08:00+11nne239598 4.3 1016200
11:00+12n2292100 1.7 1017235
14:00+12n3591100 3.1 1015369
17:00+12n3690100 0.2 1015421
20:00+12nne4991100 0.5 1018542
6 march, sat
sat623:00+11n4891100 0.1 1020478
02:00+11n41088100 0.3 1020637
05:00+11nne7148596 0.1 1021916
08:00+11nne10168399 0.4 10251054
11:00+8nne101577100 0.1 1027778
14:00+8nne101480100 0.1 1026867
17:00+7nne81381100 0.3 1027765
20:00+7nne61183100 0.5 1029765
7 march, sun
sun723:00+6n51078100 0.0 1030662
02:00+5nne6117699 0.0 1029492
05:00+4n487770 0.0 1029432
08:00+4nne587570 0.0 1029333
11:00+7nne466997 0.0 1030521
14:00+11ne346197 0.0 1027846
17:00+12ene346166 0.0 10251119
20:00+10e237683 0.0 102684
8 march, mon
mon823:00+9ese128483 0.0 102822
02:00+8e118475 0.0 102622
05:00+7n118863 0.0 102422
08:00+8n238374 0.0 1026158
11:00+9n2386100 0.3 1026204
14:00+10ne1378100 0.3 1024561
17:00+10sse1180100 0.1 1023276
20:00+9s118692 0.1 102422